Home > Weather > Aurich > Past weeks

Flag for Germany Past Weather in Aurich, Lower Saxony, Germany — Yesterday and Last 2 Weeks

Now
64 °F

Fog.


Feels Like: 64 °F
Forecast: 60 / 72 °F
Wind: 3 mph from North

Location: Wittmundhaven

Current Time: Aug 26, 2016 at 7:13:22 AM

Latest Report: Aug 26, 2016 at 6:20 AM


Visibility: N/A

Pressure: 29.92 "Hg

Humidity: 83%

Dew Point: 59 °F

Location of AurichLocation

Past Weather in Aurich — Graph

°F

Aurich Temperature Yesterday

Maximum temperature yesterday: 88 °F (at 3:20 PM)
Minimum temperature yesterday: 64 °F (at 6:20 AM)
Average temperature yesterday: 76 °F

High & Low Weather Summary for the Past Weeks

 TemperatureHumidityPressure
High88 °F (Aug 25, 3:20 PM)100% (Aug 11, 1:45 PM)30.30 "Hg (Aug 11, 1:45 PM)
Low46 °F (Aug 18, 5:20 AM)40% (Aug 25, 4:20 PM)29.77 "Hg (Aug 19, 10:20 PM)
Average62 °F84%30.06 "Hg
* Reported Aug 11 5:20 AM — Aug 26 5:20 AM, Aurich, Weather by CustomWeather, © 2016

Note: Actual official high and low records may vary slightly from our data, if they occured in-between our weather recording intervals... More about our weather records

Advertising

Aurich Weather History for the Previous 24 Hours

Scroll right to see more
 ConditionsComfort  
Time TempWeatherWind HumidityBarometerVisibility
5:20 AM
Fri, Aug 26
64 °FPassing clouds.3 mph83%29.92 "HgN/A
4:20 AM64 °FPassing clouds.3 mph83%29.92 "HgN/A
3:20 AM66 °FFog.3 mph83%29.92 "HgN/A
2:20 AM66 °FPassing clouds.1 mph83%29.92 "HgN/A
1:20 AM68 °FPassing clouds.1 mph83%29.92 "HgN/A
12:20 AM68 °FPassing clouds.3 mph83%29.92 "HgN/A
11:20 PM
Thu, Aug 25
70 °FPassing clouds.5 mph83%29.92 "HgN/A
10:20 PM72 °FPassing clouds.2 mph78%29.95 "HgN/A
9:20 PM73 °FPassing clouds.5 mph78%29.95 "HgN/A
8:20 PM75 °FPassing clouds.2 mph78%29.95 "HgN/A
7:20 PM86 °FPassing clouds.3 mph46%29.95 "HgN/A
6:20 PM88 °FPassing clouds.6 mph43%29.95 "HgN/A
5:20 PM88 °FPassing clouds.8 mph40%29.98 "HgN/A
4:20 PM88 °FPassing clouds.10 mph40%29.98 "HgN/A
3:20 PM88 °FScattered clouds.10 mph43%29.98 "HgN/A
2:20 PM86 °FScattered clouds.10 mph43%30.01 "HgN/A
1:20 PM86 °FPartly sunny.10 mph46%30.01 "HgN/A
12:20 PM84 °FPartly sunny.8 mph48%30.04 "HgN/A
11:20 AM81 °FPartly sunny.8 mph54%30.04 "HgN/A
10:20 AM77 °FScattered clouds.6 mph65%30.07 "HgN/A
9:20 AM73 °FScattered clouds.7 mph69%30.07 "HgN/A
8:20 AM70 °FPassing clouds.3 mph73%30.07 "HgN/A
7:20 AM66 °FPassing clouds.2 mph78%30.07 "HgN/A
Weather by CustomWeather, © 2016

See weather overviewHow to use our weather pages